User: anonymous   Login
Location: Arcones
(41.1182°N, 3.7238°W)
Time: 06:56:55
(UTC+00:00)
Language:

Cosmos 2058 Rocket - Orbit

View from above orbital plane
View from above orbital plane
View from above satellite
View from above satellite

Ground track
Ground track

The orbit is defined by the following mean orbital elements,

1 20466U          26037.79610675 +.00000000 +00000-0 +75621-4 0 00005
2 20466  82.5031 296.4083 0020946  44.8452 315.4451 14.83541772    04
Epoch (UTC): 06 February 2026 19:06:23
Eccentricity: 0.0020946
inclination: 82.5031°
perigee height: 604 km
apogee height: 633 km
right ascension of ascending node: 296.4083°
argument of perigee: 44.8452°
revolutions per day: 14.83541772
mean anomaly at epoch: 315.4451°

The dashed part of the orbit path shows where the satellite is in the earth's shadow,  

DLR